Wind_Speed
10 11 11 12 12 13 13 13 13 13 13 14 14 15 16 17 17 18 19 20 20 21 22 23 23 23 23 23 23 23 23 23 23 23 23 23 23 23 22 22 23 23 24
11 12 13 13 14 14 15 15 15 16 16 16 17 18 19 20 21 21 22 23 24 25 25 26 26 26 26 26 26 25 25 25 25 26 26 25 25 24 24 24 25 25 25
12 13 14 15 15 16 16 17 18 19 19 20 20 21 22 23 24 24 25 26 27 28 28 28 29 29 29 28 28 28 28 27 28 28 28 27 27 27 26 26 26 26 27
14 14 15 16 17 17 18 19 20 21 22 23 24 24 25 26 26 27 28 29 29 30 30 31 31 31 31 31 30 30 30 30 30 30 30 30 29 29 29 28 28 28 29
16 17 17 18 19 19 20 21 22 23 24 25 26 27 27 28 29 30 31 31 32 32 32 33 33 33 33 32 32 32 32 32 32 32 32 32 31 31 31 31 31 30 30
18 19 20 20 20 21 22 23 25 26 27 27 28 29 30 30 31 32 33 33 34 34 34 34 34 34 34 34 34 34 34 34 34 34 34 34 33 33 33 33 33 33 32
21 22 23 23 23 24 25 26 27 28 29 30 31 31 31 32 34 35 35 35 35 36 36 36 36 36 36 36 36 36 36 37 37 36 36 36 36 36 36 35 35 35 34
25 25 26 27 27 28 28 29 30 31 31 32 33 33 34 34 34 36 37 38 37 37 38 38 38 38 38 39 39 38 38 39 40 40 39 38 38 39 39 39 38 38 37
28 28 29 30 31 31 31 31 32 33 34 34 35 35 36 36 37 38 38 38 38 39 39 39 40 41 41 42 42 42 41 42 42 42 41 41 41 41 42 42 41 41 39
31 31 32 34 33 34 34 34 35 35 36 36 37 38 38 38 38 39 39 40 40 41 41 41 42 43 44 44 45 45 44 44 45 44 44 44 43 43 44 45 45 45 43
34 35 36 36 36 36 36 36 36 36 38 38 38 38 38 38 39 39 41 43 44 44 44 44 45 46 46 47 47 47 47 48 48 48 48 47 47 47 47 47 47 48 47
36 37 37 38 39 39 39 38 38 38 40 41 39 38 38 39 41 42 42 43 45 46 46 46 47 48 48 49 50 50 51 51 51 51 51 51 50 50 50 50 49 49 49
36 38 38 38 39 39 39 40 40 40 40 40 39 40 41 42 43 44 45 46 47 49 48 48 49 50 52 53 53 53 54 54 55 55 54 53 53 53 53 53 53 52 50
36 36 35 36 38 37 37 38 40 40 40 41 42 43 44 46 47 47 48 49 49 50 51 51 53 54 55 55 55 56 56 57 57 57 57 56 56 56 55 54 53 52 51
35 36 36 36 37 37 37 38 39 40 41 41 42 44 45 46 47 48 50 50 51 52 53 54 55 55 56 57 57 58 58 58 59 59 59 58 57 56 55 54 53 51 50
35 35 36 36 37 37 37 38 40 41 41 42 43 45 46 46 48 49 50 51 53 54 55 55 56 57 58 58 59 59 60 60 60 59 59 58 57 56 54 53 52 51 51
37 37 38 39 39 39 39 40 41 41 42 43 44 45 46 47 49 50 52 53 55 56 57 57 58 59 60 60 60 60 59 59 59 58 57 57 56 55 53 51 51 50 50
37 38 39 40 40 41 41 42 43 43 44 44 46 47 48 49 50 52 53 55 56 57 58 59 59 60 60 60 59 58 58 57 56 55 54 53 52 52 51 50 49 49 48
37 38 39 39 40 42 43 44 44 45 46 47 48 49 51 52 53 54 55 56 57 57 58 58 58 58 58 57 57 56 55 54 53 52 50 49 48 47 47 46 46 46 45
39 40 41 42 43 44 45 45 46 47 48 49 51 52 53 55 55 56 57 56 56 56 55 55 54 53 52 52 52 51 50 49 48 47 46 45 44 43 43 42 42 42 42
40 41 42 43 44 45 46 47 48 49 50 51 52 53 54 55 55 54 54 53 53 52 51 51 49 48 47 46 45 44 44 43 43 42 41 40 39 38 37 36 37 36 36
42 43 44 45 46 47 48 49 50 51 51 52 52 52 52 52 51 50 50 49 48 47 46 45 44 43 42 41 41 40 39 37 37 37 36 35 34 34 33 32 31 31 30
44 45 46 47 48 49 49 49 50 50 50 50 49 50 50 49 48 47 46 45 43 42 41 40 40 39 38 38 36 35 34 33 32 32 31 30 29 28 27 27 27 26 26
45 46 46 47 47 47 47 48 47 47 47 47 47 47 47 46 44 43 41 40 39 38 38 37 36 35 34 33 31 30 30 28 28 28 27 25 24 23 23 24 23 23 23
45 45 45 45 45 45 45 45 44 44 44 44 44 43 42 40 39 38 37 35 35 35 34 33 31 30 30 29 27 26 25 24 24 23 22 20 19 19 20 20 20 21 21
42 42 42 42 42 42 41 41 40 40 40 39 38 37 35 34 33 32 30 30 29 29 28 26 25 25 24 23 22 21 20 20 20 19 17 16 16 16 17 17 18 19 20
Wind_Direction
242 238 238 239 241 240 240 242 245 249 254 259 264 267 271 275 278 283 287 290 293 296 298 300 302 304 306 306 307 307 307 307 308 309 309 308 306 305 303 301 299 297 295
245 241 243 244 246 246 246 248 252 256 260 264 267 270 273 277 280 283 286 289 291 293 296 297 299 300 302 303 303 303 303 303 304 305 305 304 304 302 301 300 299 297 294
249 249 249 250 250 251 253 255 258 261 264 268 270 273 276 279 281 284 286 288 290 292 294 295 296 297 298 299 299 300 300 300 301 301 302 302 301 300 299 299 298 297 295
253 252 254 255 255 257 258 260 263 266 268 271 273 275 277 279 282 284 286 288 289 291 292 292 293 294 294 295 295 296 296 298 298 298 299 300 299 298 297 297 297 296 296
260 256 258 260 260 261 263 266 267 269 270 272 274 276 277 279 281 283 285 286 287 288 289 290 290 291 292 292 292 293 293 295 296 296 297 297 296 295 295 295 295 294 294
268 267 267 269 268 267 268 269 271 272 273 273 274 276 277 278 280 283 284 285 285 286 287 287 288 288 289 290 290 290 291 293 294 295 295 295 295 294 294 294 294 294 293
273 272 272 272 272 273 273 274 275 275 276 277 276 277 279 280 280 282 284 284 285 285 284 284 285 286 287 288 289 289 290 291 292 293 293 293 293 293 293 293 293 293 292
277 276 275 275 275 275 276 275 276 276 277 277 276 277 279 279 280 283 284 283 283 283 283 283 284 285 287 287 287 288 289 290 290 290 291 291 291 291 292 292 292 292 291
278 277 276 277 277 277 277 277 278 279 278 279 279 279 279 279 281 282 282 282 282 282 283 284 285 285 286 286 287 288 289 288 288 288 289 290 290 290 291 291 291 290 290
278 279 280 279 279 278 277 278 280 279 277 278 278 279 279 278 280 281 281 282 283 283 283 284 284 285 285 286 287 288 288 287 287 287 288 289 289 288 289 289 289 289 289
279 279 280 279 278 277 276 277 278 277 277 279 278 278 278 279 280 281 282 283 283 283 283 283 283 284 285 286 286 287 286 285 285 286 287 287 287 287 287 287 287 288 288
278 279 280 279 278 278 278 278 278 278 281 281 281 281 281 281 283 283 284 285 285 284 284 284 286 286 286 287 287 287 286 285 285 285 285 285 285 285 285 285 285 285 285
279 280 280 279 279 279 278 278 280 281 282 282 282 283 284 284 284 284 284 285 284 284 285 285 285 285 287 288 287 287 286 286 286 285 285 285 284 284 285 285 284 283 282
281 281 281 281 283 284 283 284 284 283 284 284 284 285 285 285 284 284 284 285 285 285 285 285 285 286 287 287 287 287 287 286 286 285 285 284 284 284 284 284 282 281 280
281 281 282 283 284 284 284 285 285 284 284 285 286 286 286 286 286 287 287 287 287 287 288 288 288 288 288 287 287 287 287 286 285 285 284 284 284 284 283 282 280 279 278
284 285 286 285 286 287 288 288 288 287 286 286 287 288 287 288 289 289 289 289 289 290 290 290 290 290 289 289 288 287 287 286 285 284 284 283 283 282 280 278 277 275 274
284 284 285 285 286 287 288 288 288 287 287 287 288 288 289 290 290 290 290 291 291 291 291 291 290 290 289 289 289 288 287 286 285 284 284 283 282 281 279 276 274 273 271
287 287 287 287 287 288 288 289 290 290 290 291 291 291 291 292 292 291 291 291 291 291 291 291 291 290 290 289 289 288 287 286 285 284 283 282 280 279 277 274 272 271 269
290 290 291 291 291 291 291 291 292 292 292 292 291 292 292 292 292 292 292 292 292 291 291 292 291 291 290 290 289 288 286 285 284 283 282 280 279 278 276 274 272 270 269
291 291 291 291 292 292 292 292 292 292 292 292 292 293 293 293 293 293 293 292 292 292 292 292 292 291 291 290 289 287 286 284 283 282 280 279 278 277 276 275 272 270 268
292 292 292 292 292 292 293 293 293 293 293 293 294 294 295 295 294 294 294 294 294 294 294 294 294 293 291 290 290 289 287 285 283 281 279 278 278 276 274 273 271 269 267
292 293 294 293 293 294 294 294 294 294 294 295 296 296 296 296 296 295 295 294 294 294 294 294 295 295 294 292 291 289 288 286 283 280 279 279 278 276 273 271 268 266 265
295 295 295 294 294 294 294 295 295 295 295 295 296 297 297 296 296 295 295 294 294 295 295 295 295 295 295 294 292 290 288 287 285 283 281 280 279 276 272 268 266 264 263
296 295 295 295 295 294 294 295 295 295 296 296 297 298 297 297 296 296 295 295 295 294 294 295 294 294 294 294 292 290 290 289 287 286 283 279 276 273 270 266 262 260 261
296 296 296 296 296 296 296 296 296 296 296 297 298 299 299 298 297 296 296 295 295 295 295 296 296 295 294 293 292 291 291 290 289 288 284 279 275 272 269 265 262 260 260
298 298 298 298 298 298 297 297 297 297 298 299 300 301 301 301 300 299 298 299 298 299 299 298 298 296 296 296 294 294 293 292 290 287 283 279 275 272 270 267 263 260 262
Height
5848 5850 5852 5854 5855 5857 5858 5860 5861 5862 5863 5864 5865 5865 5866 5866 5866 5866 5865 5865 5865 5864 5863 5862 5861 5859 5858 5856 5855 5853 5851 5850 5848 5846 5845 5843 5841 5839 5837 5836 5834 5833 5831
5846 5848 5849 5851 5852 5854 5855 5856 5857 5859 5859 5860 5861 5861 5861 5861 5861 5861 5861 5860 5859 5859 5858 5857 5855 5854 5852 5851 5849 5848 5846 5844 5843 5841 5839 5837 5835 5833 5831 5830 5828 5827 5825
5843 5844 5846 5847 5849 5850 5851 5852 5853 5854 5855 5855 5856 5856 5856 5856 5856 5855 5855 5854 5853 5852 5851 5850 5849 5847 5846 5844 5843 5841 5839 5838 5836 5834 5832 5831 5829 5827 5825 5823 5821 5820 5818
5840 5841 5842 5843 5844 5845 5846 5847 5848 5849 5849 5850 5850 5850 5850 5850 5849 5849 5848 5847 5846 5845 5844 5843 5842 5840 5839 5837 5836 5834 5832 5830 5829 5827 5825 5823 5821 5819 5818 5816 5814 5812 5810
5836 5836 5838 5839 5839 5840 5841 5842 5842 5843 5843 5843 5843 5843 5843 5842 5842 5841 5840 5839 5838 5837 5836 5835 5834 5832 5831 5829 5828 5826 5824 5822 5821 5819 5817 5815 5813 5811 5809 5808 5806 5804 5802
5832 5832 5833 5834 5835 5835 5835 5836 5836 5836 5836 5836 5836 5835 5834 5834 5833 5832 5831 5830 5830 5829 5827 5826 5824 5823 5822 5820 5818 5817 5815 5814 5812 5810 5808 5806 5804 5802 5800 5798 5796 5795 5793
5827 5828 5828 5828 5828 5828 5829 5829 5829 5829 5828 5828 5827 5827 5826 5825 5824 5823 5822 5821 5820 5819 5818 5816 5815 5814 5812 5811 5809 5807 5805 5803 5802 5800 5798 5796 5794 5792 5790 5788 5786 5784 5783
5821 5821 5821 5821 5821 5821 5821 5821 5820 5819 5819 5819 5818 5818 5817 5815 5814 5813 5812 5811 5810 5809 5807 5806 5804 5803 5801 5800 5798 5797 5795 5793 5791 5789 5787 5785 5783 5781 5778 5777 5775 5773 5772
5815 5813 5813 5813 5813 5813 5812 5812 5811 5810 5810 5809 5808 5807 5807 5805 5804 5803 5801 5800 5799 5798 5796 5795 5793 5792 5790 5787 5786 5785 5783 5781 5779 5777 5775 5774 5772 5769 5766 5764 5763 5761 5760
5807 5806 5805 5805 5804 5804 5803 5802 5801 5800 5799 5798 5797 5796 5795 5794 5793 5792 5790 5788 5788 5787 5785 5784 5782 5780 5778 5775 5773 5772 5770 5768 5766 5764 5762 5761 5759 5757 5754 5752 5749 5747 5746
5799 5798 5797 5796 5794 5793 5792 5792 5791 5789 5789 5787 5786 5785 5784 5783 5782 5780 5778 5776 5775 5775 5773 5771 5769 5767 5765 5762 5760 5758 5756 5753 5752 5750 5748 5747 5745 5743 5741 5738 5736 5733 5732
5790 5789 5788 5786 5785 5783 5782 5781 5780 5779 5779 5777 5776 5775 5773 5772 5770 5768 5766 5765 5762 5761 5759 5757 5755 5752 5750 5748 5745 5743 5740 5737 5736 5734 5733 5731 5729 5727 5725 5723 5721 5719 5717
5780 5779 5777 5776 5775 5773 5772 5770 5769 5768 5767 5766 5765 5763 5762 5760 5758 5756 5754 5752 5749 5747 5745 5743 5740 5737 5734 5732 5729 5726 5723 5720 5718 5716 5715 5714 5712 5710 5708 5706 5704 5703 5701
5770 5768 5766 5765 5764 5762 5761 5759 5758 5756 5755 5754 5752 5751 5749 5747 5745 5743 5740 5737 5734 5732 5730 5727 5724 5721 5718 5715 5712 5709 5705 5703 5700 5698 5697 5696 5694 5692 5690 5688 5686 5685 5683
5761 5758 5757 5756 5755 5753 5751 5749 5747 5746 5744 5742 5740 5738 5736 5733 5731 5728 5725 5722 5719 5716 5713 5711 5707 5704 5701 5698 5694 5691 5687 5684 5681 5679 5677 5676 5675 5673 5671 5670 5668 5666 5666
5751 5748 5746 5745 5743 5742 5740 5738 5736 5734 5732 5729 5727 5725 5722 5719 5716 5713 5710 5707 5703 5699 5696 5693 5689 5686 5682 5679 5675 5672 5668 5665 5662 5659 5658 5656 5655 5654 5652 5651 5649 5648 5647
5740 5738 5736 5734 5732 5730 5728 5726 5724 5722 5720 5717 5714 5710 5707 5704 5701 5698 5694 5691 5687 5682 5679 5675 5671 5667 5663 5659 5655 5652 5649 5645 5642 5640 5638 5636 5634 5633 5632 5631 5630 5630 5629
5729 5727 5725 5722 5720 5718 5715 5713 5710 5708 5705 5702 5699 5696 5693 5690 5686 5682 5678 5674 5670 5665 5661 5657 5653 5648 5644 5640 5636 5632 5629 5626 5623 5621 5619 5617 5615 5614 5612 5612 5612 5612 5612
5717 5715 5713 5710 5708 5705 5702 5699 5696 5693 5690 5687 5684 5680 5677 5673 5669 5665 5660 5657 5652 5648 5643 5638 5633 5629 5625 5620 5616 5613 5609 5607 5604 5602 5600 5599 5597 5596 5595 5594 5594 5595 5595
5706 5704 5701 5698 5695 5692 5689 5686 5682 5679 5675 5672 5668 5664 5660 5656 5652 5647 5643 5638 5634 5630 5625 5620 5616 5611 5607 5602 5598 5594 5591 5589 5587 5585 5583 5582 5581 5580 5579 5579 5579 5579 5581
5694 5691 5688 5685 5682 5679 5676 5672 5668 5664 5660 5656 5652 5647 5643 5638 5633 5629 5624 5620 5616 5612 5607 5603 5599 5595 5591 5586 5582 5578 5575 5573 5571 5570 5569 5568 5567 5566 5565 5565 5565 5566 5567
5681 5678 5675 5672 5668 5665 5661 5657 5653 5649 5645 5640 5636 5631 5626 5621 5616 5612 5609 5604 5600 5596 5592 5588 5584 5580 5576 5572 5568 5565 5562 5559 5558 5556 5556 5555 5554 5553 5553 5553 5553 5555 5556
5668 5664 5661 5657 5654 5650 5646 5642 5638 5633 5629 5624 5620 5615 5610 5605 5601 5597 5594 5590 5586 5582 5578 5574 5571 5567 5563 5559 5556 5553 5550 5548 5547 5545 5544 5543 5543 5543 5543 5544 5544 5545 5547
5654 5650 5646 5643 5639 5635 5631 5627 5623 5619 5614 5610 5606 5601 5596 5591 5587 5584 5580 5576 5573 5570 5566 5562 5559 5555 5552 5549 5546 5543 5541 5539 5537 5535 5534 5534 5534 5534 5535 5535 5536 5537 5539
5640 5636 5632 5628 5624 5621 5617 5613 5609 5605 5601 5596 5592 5588 5583 5579 5575 5571 5568 5564 5561 5558 5554 5551 5548 5545 5542 5539 5537 5535 5533 5531 5529 5528 5527 5527 5527 5527 5528 5528 5529 5530 5532
5627 5623 5619 5615 5611 5607 5604 5600 5596 5592 5588 5584 5580 5576 5572 5568 5565 5561 5557 5554 5551 5548 5545 5542 5539 5537 5534 5532 5530 5528 5526 5525 5523 5522 5521 5521 5521 5522 5522 5523 5523 5524 5525